Location: Brussels Hill
(44.7517°N, 87.5909°W)
Time: 19:27:04
(UTC+00:00)

Daily predictions for brighter satellites

Satellite Brightness Start Highest point End
(mag) Time Altitude Azimuth Time Altitude Azimuth Time Altitude Azimuth
Sich 1 Rocket 4.3 12:02:49 10° NNW 12:06:52 33° W 12:10:52 10° SSW
Iridium 45 4.3 12:05:09 10° NNW 12:08:17 56° W 12:11:28 10° S
CENTAUR R/B 3.9 12:01:07 10° NW 12:08:55 39° WSW 12:17:23 10° S
SMAP 3.5 12:05:07 10° NNE 12:09:47 69° ESE 12:14:24 10° S
ATLAS 3B R/B 3.6 12:05:01 10° W 12:11:54 35° NW 12:19:01 10° NNE
Helios 1A Rocket 4.2 12:10:02 10° SW 12:12:03 15° W 12:14:04 10° WNW
Cosmos 1484 Rocket 3.1 12:09:00 10° N 12:12:16 36° WNW 12:15:29 10° SW
CZ-2D R/B 3.5 12:09:34 10° NNE 12:12:41 56° E 12:15:48 10° S
COSMO-SKYMED 1 3.7 12:12:03 10° SW 12:15:15 22° W 12:18:29 10° NW
Cosmos 2228 3.2 12:14:07 10° N 12:18:22 78° E 12:22:37 10° SSE
Cosmos 292 Rocket 4.2 12:14:44 10° NW 12:19:14 42° WSW 12:23:42 10° S
Cosmos 1656 4.2 12:15:33 10° NNW 12:21:14 64° ENE 12:26:52 10° SE
CZ-3 R/B 3.6 12:15:38 10° WSW 12:22:42 20° SSW 12:26:39 10° SSE
Cosmos 1725 Rocket 4.3 22:41:01 10° SSW 22:47:17 78° W 22:53:37 10° N
ARIANE 5 R/B 2.8 22:46:20 10° SE 22:51:02 43° ENE 22:55:44 10° N
ATLAS 5 CENTAUR R/B 2.2 22:47:46 10° NW 22:52:14 72° SW 22:57:48 10° SSE
Cosmos 2061 Rocket 4.0 22:47:15 10° S 22:53:31 75° E 22:59:45 10° NNE
Iridium 4 Rocket 4.4 22:51:50 10° SSW 22:56:42 49° W 23:01:13 10° N
ATLAS 2AS CENTAUR R/B 4.1 22:55:03 10° NNW 22:59:45 19° NNE 23:04:25 10° ENE
Cosmos 1869 3.2 22:59:11 10° SSE 23:02:33 46° E 23:05:56 10° NNE
Cosmos 407 Rocket 3.4 23:04:55 10° SSW 23:10:05 75° ESE 23:15:14 10° NNE
SJ 16-02 2.4 23:07:19 10° SSE 23:10:48 24° E 23:14:13 10° NE
IGS 5A 3.9 23:07:07 10° S 23:11:03 64° W 23:15:01 10° NNW
SMAP 3.0 23:09:48 10° SSE 23:14:27 85° ENE 23:19:08 10° NNW
YAOGAN 1 3.8 23:11:55 10° ESE 23:14:57 19° ENE 23:17:59 10° NNE
Cosmos 44 Rocket 3.2 23:12:19 10° SSW 23:17:02 72° ESE 23:21:57 10° NE
USA 215 3.2 23:11:16 10° ESE 23:17:48 78° NE 23:24:22 10° NW
IRS-P3 4.2 23:12:54 10° SE 23:18:04 55° ENE 23:23:17 10° N
Cosmos 1833 Rocket 4.1 23:12:57 10° NW 23:18:17 43° WSW 23:23:34 10° S
ERS-1 4.5 23:13:52 10° SSE 23:18:56 64° ENE 23:24:00 10° N
BREEZE-M DEB (TANK) 2.5 23:16:42 10° SW 23:19:03 72° SSE 23:23:12 15° ENE
COSMOS 2406 4.1 23:15:02 10° N 23:19:55 28° NE 23:24:46 10° ESE
RESURS DK-1 2.2 23:17:00 10° NNW 23:21:00 80° ENE 23:25:00 10° SSE
SAR-Lupe-3 3.7 23:18:38 10° NNE 23:21:15 58° ESE 23:23:50 10° S
SL-12 R/B(2) 4.3 23:16:38 10° SW 23:24:30 89° SE 23:34:10 10° NE
Cosmos 540 Rocket 3.4 23:19:44 10° NNW 23:24:54 79° ENE 23:30:00 10° SSE
Landsat 7 3.7 23:21:52 10° SSE 23:26:31 82° ENE 23:31:11 10° N
Cosmos 1400 Rocket 3.5 23:23:58 10° SSE 23:27:16 29° E 23:29:45 15° NE
SPOT 1/Viking Rocket 3.9 23:22:35 10° SE 23:27:21 40° ENE 23:32:10 10° N
SJ-6F 4.3 23:24:24 10° SSE 23:28:15 59° ENE 23:32:07 10° N
SJ-12 3.7 23:26:11 10° SSE 23:29:59 89° ENE 23:33:48 10° NNW
Helios 1A Rocket 3.7 23:31:24 21° E 23:31:36 21° E 23:34:16 10° SSE
Cosmos 1763 Rocket 3.7 23:28:58 10° NNW 23:34:10 74° WSW 23:39:16 10° SSE
Cosmos 1072 Rocket 4.5 23:30:17 10° S 23:36:16 57° E 23:42:13 10° NNE
Spot 4 Rocket 4.4 23:32:46 10° SE 23:37:30 40° ENE 23:42:16 10° N
Cosmos 304 Rocket 4.1 23:36:17 10° S 23:40:41 41° ESE 23:43:43 18° NE
Cosmos 1536 Rocket 3.7 23:37:03 10° N 23:41:21 48° ENE 23:45:36 10° SSE
Cosmos 371 Rocket 3.7 23:38:37 10° S 23:43:06 42° ESE 23:46:07 19° NE
Meteor 2-3 Rocket 4.3 23:39:32 10° N 23:44:37 32° ENE 23:49:37 10° SE
Okean 2 Rocket 3.3 23:40:58 10° SSE 23:45:08 45° E 23:49:13 10° NNE
SL-16 R/B 4.3 23:47:59 10° N 23:53:19 31° WNW 23:58:38 10° WSW
COSMO-SKYMED 1 2.7 23:52:15 24° NE 23:54:19 44° E 23:58:16 10° S
SJ-7 4.3 23:51:11 10° SE 23:54:43 46° ENE 23:58:16 10° N
Cosmos 1602 3.3 23:52:06 10° NNW 23:55:09 69° W 23:58:11 10° S
